Estación de Santa Rosa INIA
Ultimos registro cada 15 minutos 67
| N° | Estación | Fecha / Hora | Temperatura | Humedad | Lluvia | Velocidad | Dirección | Radiación | Presion |
| 67 | Santa Rosa INIA | 03-05-2026 16:30 | 14,9 | 85 | 0,1 | 0,1 | 56 | 20 | 995 |
| 66 | Santa Rosa INIA | 03-05-2026 16:15 | 15,2 | 92,4 | 0 | 0 | 0 | 23 | 995 |
| 65 | Santa Rosa INIA | 03-05-2026 16:00 | 15,4 | 89,4 | 0 | 0 | 0 | 21 | 994 |
| 64 | Santa Rosa INIA | 03-05-2026 15:45 | 15,8 | 81,7 | 0 | 0 | 24 | 47 | 995 |
| 63 | Santa Rosa INIA | 03-05-2026 15:30 | 15,7 | 77,2 | 0 | 0 | 0 | 98 | 995 |
| 62 | Santa Rosa INIA | 03-05-2026 15:15 | 15,7 | 75,6 | 0 | 0 | 0 | 102 | 995 |
| 61 | Santa Rosa INIA | 03-05-2026 15:00 | 15,7 | 74,8 | 0 | 1,1 | 48 | 126 | 994 |
| 60 | Santa Rosa INIA | 03-05-2026 14:45 | 15,7 | 75,4 | 0 | 0,6 | 44 | 119 | 994 |
| 59 | Santa Rosa INIA | 03-05-2026 14:30 | 15,7 | 72,1 | 0 | 1 | 49 | 160 | 995 |
| 58 | Santa Rosa INIA | 03-05-2026 14:15 | 15,6 | 74,3 | 0 | 2 | 54 | 222 | 995 |
| 57 | Santa Rosa INIA | 03-05-2026 14:00 | 15,4 | 74,8 | 0 | 1,3 | 65 | 270 | 995 |
| 56 | Santa Rosa INIA | 03-05-2026 13:45 | 14,9 | 79,5 | 0 | 0 | 51 | 215 | 995 |
| 55 | Santa Rosa INIA | 03-05-2026 13:30 | 14,9 | 78,2 | 0 | 0,6 | 64 | 142 | 995 |
| 54 | Santa Rosa INIA | 03-05-2026 13:15 | 15,1 | 77,8 | 0 | 0 | 7 | 216 | 995 |
| 53 | Santa Rosa INIA | 03-05-2026 13:00 | 14,9 | 82 | 0 | 0 | 0 | 218 | 996 |
| 52 | Santa Rosa INIA | 03-05-2026 12:45 | 14,7 | 84,7 | 0 | 0,9 | 40 | 221 | 996 |
| 51 | Santa Rosa INIA | 03-05-2026 12:30 | 14,4 | 89,5 | 0 | 1,1 | 37 | 302 | 996 |
| 50 | Santa Rosa INIA | 03-05-2026 12:15 | 14,2 | 94,2 | 0 | 0 | 0 | 290 | 996 |
| 49 | Santa Rosa INIA | 03-05-2026 12:00 | 13,5 | 100 | 0 | 0,1 | 358 | 288 | 995 |
| 48 | Santa Rosa INIA | 03-05-2026 11:45 | 13,3 | 100 | 0 | 0,4 | 28 | 257 | 996 |
| 47 | Santa Rosa INIA | 03-05-2026 11:30 | 13 | 100 | 0 | 0,6 | 24 | 326 | 996 |
| 46 | Santa Rosa INIA | 03-05-2026 11:15 | 12,6 | 100 | 0 | 0,5 | 18 | 223 | 996 |
| 45 | Santa Rosa INIA | 03-05-2026 11:00 | 12,4 | 100 | 0 | 0,5 | 27 | 213 | 995 |
| 44 | Santa Rosa INIA | 03-05-2026 10:45 | 12,2 | 100 | 0 | 0,1 | 7 | 169 | 996 |
| 43 | Santa Rosa INIA | 03-05-2026 10:30 | 11,8 | 100 | 0 | 0 | 0 | 183 | 996 |
| 42 | Santa Rosa INIA | 03-05-2026 10:15 | 10,9 | 100 | 0 | 0 | 0 | 199 | 995 |
| 41 | Santa Rosa INIA | 03-05-2026 10:00 | 10,1 | 100 | 0 | 0 | 0 | 209 | 995 |
| 40 | Santa Rosa INIA | 03-05-2026 09:45 | 9,4 | 100 | 0 | 0,2 | 80 | 200 | 995 |
| 39 | Santa Rosa INIA | 03-05-2026 09:30 | 8,3 | 100 | 0 | 0,7 | 93 | 238 | 995 |
| 38 | Santa Rosa INIA | 03-05-2026 09:15 | 7,2 | 0,6 | 0 | 0 | 0 | 174 | 995 |
| 37 | Santa Rosa INIA | 03-05-2026 09:00 | 6,4 | 0,5 | 0 | 0,4 | 82 | 103 | 995 |
| 36 | Santa Rosa INIA | 03-05-2026 08:45 | 5,6 | 0,5 | 0 | 0,2 | 74 | 90 | 995 |
| 35 | Santa Rosa INIA | 03-05-2026 08:30 | 5,4 | 0,5 | 0 | 0 | 0 | 61 | 995 |
| 34 | Santa Rosa INIA | 03-05-2026 08:15 | 4 | 0,5 | 0 | 0 | 0 | 78 | 995 |
| 33 | Santa Rosa INIA | 03-05-2026 08:00 | 2,7 | 0,6 | 0 | 0 | 0 | 45 | 995 |
| 32 | Santa Rosa INIA | 03-05-2026 07:45 | 2,6 | 0,4 | 0 | 0 | 0 | 10 | 995 |
| 31 | Santa Rosa INIA | 03-05-2026 07:30 | 2,8 | 0,5 | 0 | 0 | 0 | 3 | 995 |
| 30 | Santa Rosa INIA | 03-05-2026 07:15 | 3,2 | 0,5 | 0 | 0 | 0 | 0 | 995 |
| 29 | Santa Rosa INIA | 03-05-2026 07:00 | 2,8 | 0,5 | 0 | 0 | 0 | 1 | 995 |
| 28 | Santa Rosa INIA | 03-05-2026 06:45 | 2,9 | 0,5 | 0 | 0 | 0 | 0 | 995 |
| 27 | Santa Rosa INIA | 03-05-2026 06:30 | 2,6 | 0,5 | 0 | 0 | 0 | 0 | 995 |
| 26 | Santa Rosa INIA | 03-05-2026 06:15 | 2,3 | 0,5 | 0,1 | 0 | 0 | 0 | 995 |
| 25 | Santa Rosa INIA | 03-05-2026 06:00 | 2,4 | 0,5 | 0 | 0 | 0 | 1 | 995 |
| 24 | Santa Rosa INIA | 03-05-2026 05:45 | 2,3 | 0,5 | 0 | 0 | 0 | 0 | 994 |
| 23 | Santa Rosa INIA | 03-05-2026 05:30 | 2,4 | 0,5 | 0 | 0 | 0 | 0 | 994 |
| 22 | Santa Rosa INIA | 03-05-2026 05:15 | 2,6 | 0,5 | 0 | 0 | 0 | 0 | 995 |
| 21 | Santa Rosa INIA | 03-05-2026 05:00 | 2,6 | 0,5 | 0 | 0 | 0 | 1 | 994 |
| 20 | Santa Rosa INIA | 03-05-2026 04:45 | 1,7 | 0,5 | 0 | 0 | 0 | 0 | 994 |
| 19 | Santa Rosa INIA | 03-05-2026 04:30 | 2,2 | 0,4 | 0 | 0 | 0 | 0 | 994 |
| 18 | Santa Rosa INIA | 03-05-2026 04:15 | 1,8 | 0,5 | 0 | 0 | 0 | 0 | 994 |
| 17 | Santa Rosa INIA | 03-05-2026 04:00 | 1,4 | 0,5 | 0 | 0,1 | 86 | 1 | 995 |
| 16 | Santa Rosa INIA | 03-05-2026 03:45 | 2,2 | 0,5 | 0 | 0 | 0 | 0 | 995 |
| 15 | Santa Rosa INIA | 03-05-2026 03:30 | 3,3 | 0,5 | 0 | 0 | 0 | 0 | 995 |
| 14 | Santa Rosa INIA | 03-05-2026 03:15 | 3,7 | 0,4 | 0 | 0 | 0 | 0 | 995 |
| 13 | Santa Rosa INIA | 03-05-2026 03:00 | 2,5 | 0,6 | 0 | 0 | 0 | 1 | 995 |
| 12 | Santa Rosa INIA | 03-05-2026 02:45 | 2,6 | 0,5 | 0 | 0 | 0 | 0 | 995 |
| 11 | Santa Rosa INIA | 03-05-2026 02:30 | 3,2 | 0,6 | 0 | 0 | 0 | 0 | 995 |
| 10 | Santa Rosa INIA | 03-05-2026 02:15 | 3,3 | 0,5 | 0 | 0 | 0 | 0 | 995 |
| 9 | Santa Rosa INIA | 03-05-2026 02:00 | 3,3 | 0,6 | 0 | 0 | 0 | 1 | 995 |
| 8 | Santa Rosa INIA | 03-05-2026 01:45 | 3,8 | 0,5 | 0 | 0 | 0 | 0 | 995 |
| 7 | Santa Rosa INIA | 03-05-2026 01:30 | 4,6 | 0,5 | 0 | 0 | 0 | 0 | 995 |
| 6 | Santa Rosa INIA | 03-05-2026 01:15 | 4,1 | 0,4 | 0 | 0 | 0 | 0 | 995 |
| 5 | Santa Rosa INIA | 03-05-2026 01:00 | 4,2 | 0,5 | 0 | 0,2 | 102 | 1 | 995 |
| 4 | Santa Rosa INIA | 03-05-2026 00:45 | 4 | 0,4 | 0 | 0 | 0 | 0 | 995 |
| 3 | Santa Rosa INIA | 03-05-2026 00:30 | 4,4 | 99,4 | 0 | 0 | 0 | 0 | 995 |
| 2 | Santa Rosa INIA | 03-05-2026 00:15 | 3,9 | 0,5 | 0 | 0 | 0 | 0 | 995 |
| 1 | Santa Rosa INIA | 03-05-2026 00:00 | 3,8 | 100 | 0 | 0 | 0 | 1 | 995 |